Regional Weather Roundup
Issued by NWS Boston, MA

Home | Current Version | Previous Version | Text Only | Print | Product List | Glossary On
Versions: 1 2 3 4 5 6 7 8 9 10 11 12 13 14 15 16 17 18 19 20 21 22 23 24 25 26 27 28 29 30 31 32 33 34 35 36 37 38 39 40 41 42 43 44 45 46 47 48 49 50
000
ASUS41 KBOX 250010
RWRBOX

REGIONAL WEATHER ROUNDUP
NATIONAL WEATHER SERVICE TAUNTON MA
800 PM EDT SUN MAY 24 2015

NOTE:  "FAIR" INDICATES FEW OR NO CLOUDS BELOW 12,000 FEET WITH NO
SIGNIFICANT WEATHER AND/OR OBSTRUCTIONS TO VISIBILITY.  THE FOLLOWING
OBSERVATION LOCATIONS DO NOT REPORT PRESENT WEATHER...PROVINCETOWN...
SMITHFIELD...BLOCK ISLAND...KEENE...AND OXFORD.

MAZALL-250100-
EASTERN MASSACHUSETTS

CITY           SKY/WX    TMP DP  RH WIND       PRES   REMARKS
BOSTON         CLOUDY    73  42  32 SW18      30.17R
6HR MIN TEMP:  73; 6HR MAX TEMP:  83;

BEVERLY        PTCLDY    75  38  26 W10       30.14R
LAWRENCE       PTCLDY    76  38  25 SW8       30.15R
BEDFORD        PTCLDY    73  37  27 SW10G18   30.15R
BLUE HILL        N/A     70  42  36 S18G28    30.18R
NORWOOD        MOCLDY    72  43  35 SW10      30.18R
MARSHFIELD     PTCLDY    70  48  46 SW9G22    30.20R
PLYMOUTH       MOCLDY    65  48  54 SW10      30.21S
TAUNTON        MOCLDY    66  49  54 S6        30.21R
NEW BEDFORD    MOCLDY    60  48  64 SW12      30.23R
$$

MAZALL-250100-
CAPE COD AND THE ISLANDS

CITY           SKY/WX    TMP DP  RH WIND       PRES   REMARKS
FALMOUTH       PTCLDY    59  46  63 SW18G25   30.25R
HYANNIS        PTCLDY    59  47  64 SW17      30.23R
CHATHAM        PTCLDY    59  51  75 SW14G21   30.24R
PROVINCETOWN   PTCLDY    57  48  72 SW15      30.20R
NANTUCKET      PTCLDY    57  47  69 SW18      30.26S
MARTHAS VNYRD  MOCLDY    58  46  64 SW12      30.26R
$$

MAZALL-250100-
CENTRAL AND WESTERN MASSACHUSETTS

CITY           SKY/WX    TMP DP  RH WIND       PRES   REMARKS
WORCESTER      MOCLDY    71  36  27 SW10      30.21R
6HR MIN TEMP:  71; 6HR MAX TEMP:  79;

FITCHBURG      PTCLDY    75  39  27 SW6       30.17R
ORANGE         MOCLDY    73  39  29 SW9       30.18R
SPRINGFIELD    MOCLDY    72  40  30 S10       30.18R
WESTFIELD      NOT AVBL
NORTH ADAMS    MOCLDY    66  46  48 CALM      30.19R
PITTSFIELD     MOCLDY    71  36  27 SW6       30.20R
$$

RIZALL-250100-
RHODE ISLAND

CITY           SKY/WX    TMP DP  RH WIND       PRES   REMARKS
PROVIDENCE     MOCLDY    68  48  48 SW14      30.23R
6HR MIN TEMP:  68; 6HR MAX TEMP:  82;

NEWPORT        MOCLDY    58  46  64 VRB7      30.24S
BLOCK ISLAND   MOCLDY    55  45  67 SW15G22   30.27S
SMITHFIELD     MOCLDY    66  45  45 SW7       30.22R
WESTERLY       MOCLDY    62  48  60 SW6       30.26S
$$

CTZALL-250100-
CONNECTICUT

CITY           SKY/WX    TMP DP  RH WIND       PRES   REMARKS
BRADLEY INTL   MOCLDY    72  49  44 S14       30.20R
6HR MIN TEMP:  72; 6HR MAX TEMP:  83;

HARTFORD       MOCLDY    69  49  48 S8        30.22R
BRIDGEPORT     CLOUDY    65  51  60 SW9       30.25R
DANBURY        CLOUDY    68  48  48 S10       30.24S
GROTON         CLOUDY    59  49  69 W7        30.25S
NEW HAVEN      CLOUDY    64  50  60 VRB6      30.25S
CHESTER        NOT AVBL
MERIDEN        CLOUDY    68  50  52 S6        30.23S
WILLIMANTIC    MOCLDY    69  48  47 SW7       30.24R
OXFORD         CLOUDY    66  48  52 S9        30.25S
$$

MEZ002-015-021-024-NHZ003-005-008-011-012-014-VTZ005-008-250100-
NORTHERN NEW ENGLAND

CITY           SKY/WX    TMP DP  RH WIND       PRES   REMARKS
PORTLAND ME    PTCLDY    77  39  25 SW6       30.09R
6HR MIN TEMP:  77; 6HR MAX TEMP:  83; 6HR PCP: TRACE;

BANGOR ME      MOCLDY    67  46  47 CALM      30.02R
CONCORD NH     PTCLDY    75  36  24 W8        30.13R
MANCHESTER NH  MOCLDY    77  35  21 W5        30.12R
NASHUA NH      PTCLDY    75  39  27 SW3       30.15R
PORTSMOUTH NH  MOCLDY    75  38  26 SW6       30.11R
JAFFREY NH     MOCLDY    72  38  29 W6        30.19R
KEENE NH       MOCLDY    73  36  25 S3        30.17S
BURLINGTON VT  MOCLDY    75  35  23 SW7       30.09R
MT. WASHINGTON MOCLDY    45  32  61 NE40        N/A
$$

NYZ052-076-250100-
EASTERN NEW YORK

CITY           SKY/WX    TMP DP  RH WIND       PRES   REMARKS
ALBANY         CLOUDY    73  43  33 W5        30.17S
6HR MIN TEMP:  73; 6HR MAX TEMP:  82;

NEW YORK CITY  MOCLDY    68  51  54 S12       30.23R
6HR MIN TEMP:  68; 6HR MAX TEMP:  81;

$$

ANZALL-250100-
MARINE OBSERVATIONS

STATION/POSITION TIME  TEMP    WIND        PRES    VSBY  WAVE
                       AIR SEA DIR/SP/G                  HT/PER
                 (UTC) (F)     (DEG/KT/KT) (MB)    (MI)  (FT/S)
BOSTON BUOY      2350   63 53  210/ 16/ 17   N/A           2/ 4
BUZZARDS BAY     2300          230/ 25/ 27   N/A
NANTUCKET SOUND  2350   59 56  230/ 19/ 23   N/A           3/ 4
MASS BAY-STELLWA 2304   60 52  210/ 14/ 16   N/A    1 7/8  2/ 5
ISLE OF SHOALS   2300   78     260/ 19/ 20   N/A
S OF BLOCK IS    2308      53                N/A           4/ 5
$$

......................KEY.........................
  SKY/WX - SKY CONDITION/PRESENT WEATHER
  TMP    - TEMPERATURE IN FAHRENHEIT
  DWPT   - DEWPOINT IN FAHRENHEIT
  RH     - RELATIVE HUMIDITY IN PERCENT
  WIND   - DIRECTION AND SPEED IN MPH
  PRES   - MEAN SEA LEVEL PRESSURE IN INCHES OF HG
  WCI    - WIND CHILL INDEX
  VSB    - VISIBILITY IN MILES
  HX     - HEAT INDEX
  TC     - TEMPERATURE IN CELSIUS
  VRB    - VARIABLE WIND DIRECTION
  N/A    - NOT AVAILABLE



USA.gov is the U.S. government's official web portal to all federal, state and local government web resources and services.